Regional Weather Roundup
Issued by NWS

Home | Current Version | Previous Version | Graphics & Text | Print | Product List | Glossary On
Versions: 1 2 3 4 5 6 7 8 9 10 11 12 13 14 15 16 17 18 19 20 21 22 23 24 25 26 27 28 29 30 31 32 33 34 35 36 37 38 39 40 41 42 43 44 45 46 47 48 49 50
000
ASUS43 KIND 311609
RWRIN

WEATHER ROUNDUP FOR INDIANA
NATIONAL WEATHER SERVICE INDIANAPOLIS IN
1100 AM EST SAT JAN 31 2015

NOTE: "FAIR" INDICATES FEW OR NO CLOUDS BELOW 12,000 FEET WITH NO
SIGNIFICANT WEATHER AND/OR OBSTRUCTIONS TO VISIBILITY.

* - STATION DOES NOT REPORT WEATHER SUCH AS PRECIPITATION OR FOG.

+ - STATION NOT QUALITY CONTROLLED BY THE NATIONAL WEATHER SERVICE.
    USE DATA WITH CAUTION...ESPECIALLY DEWPOINT AND RELATIVE
    HUMIDITY OBSERVATIONS.

INZ001>003-010>013-019-020-311700-
NORTHWEST INDIANA

CITY           SKY/WX    TMP DP  RH WIND       PRES   REMARKS
GARY /AIRPORT/ MOSUNNY   34  19  55 SW12      30.26S WCI  25
KNOX *+        SUNNY     32  10  40 SW14      30.26S WCI  22
LA PORTE +     SUNNY     32  25  74 SW12      30.26S WCI  23
MICHIGAN CITY+ MOSUNNY   34  19  55 SW10      30.25F WCI  26
MONTICELLO +   PTSUNNY   31  24  73 SW14      30.28F WCI  21
VALPARAISO     SUNNY     31  23  72 SW16      30.26S WCI  20

$$

LMZ046-743>745-311700-
SOUTHERN LAKE MICHIGAN

STATION/POSITION TIME  TEMP WIND        PRES
                       AIR  DIR/SP/G
                 (UTC) (F)  (DEG/KT/KT) (MB)
MICHIGAN CITY    1600   31  200/ 15/ 17   N/A

$$

INZ004-005-014>016-021>024-311700-
NORTH CENTRAL INDIANA

CITY           SKY/WX    TMP DP  RH WIND       PRES   REMARKS
ELKHART        PTSUNNY   30  18  59 SW10      30.26  WCI  21
GOSHEN         SUNNY     30  22  72 SW14      30.26F WCI  19
LOGANSPORT +   SUNNY     32  25  74 SW15      30.30F WCI  22
PERU/GRISSOM   SUNNY     31  23  71 SW13      30.29F WCI  22
ROCHESTER +    SUNNY     34  27  75 SW8       30.29S WCI  27
SOUTH BEND     NOT AVBL
WARSAW +       SUNNY     32  21  64 SW7       30.27F WCI  26

$$

INZ006>009-017-018-025>027-311700-
NORTHEAST INDIANA

CITY           SKY/WX    TMP DP  RH WIND       PRES   REMARKS
ANGOLA *+      SUNNY     28  19  69 SW13      30.25S WCI  18
AUBURN +       SUNNY     32  19  59 SW7       30.28F WCI  26
FORT WAYNE     SUNNY     30  21  69 SW14      30.30F WCI  19
HUNTINGTON +   SUNNY     30  17  57 SW7       30.30S WCI  23

$$

INZ028-029-035-036-043>045-051>053-311700-
WEST CENTRAL INDIANA

CITY           SKY/WX    TMP DP  RH WIND       PRES   REMARKS
LAFAYETTE      MOSUNNY   32  23  69 SW8       30.30F WCI  25
TERRE HAUTE    PTSUNNY   33  24  69 SW8       30.36S WCI  26

$$

INZ030>032-037>040-046>048-054>057-064-065-311700-
CENTRAL INDIANA

CITY           SKY/WX    TMP DP  RH WIND       PRES   REMARKS
ANDERSON       SUNNY     30  19  64 SW10      30.34S WCI  21
CP ATTERBURY + MOSUNNY   32  23  69 SW7       30.37S WCI  26
COLUMBUS       SUNNY     30  19  64 SW9       30.38S WCI  22
FRANKFORT +    MOSUNNY   33  26  75 S10       30.31F WCI  25
GREENWOOD *+   MOSUNNY   32  19  59 SW6       30.35F WCI  26
INDIANAPOLIS   CLOUDY    28  21  75 SW8       30.34F WCI  20
-EAGLE CREEK   MOSUNNY   30  21  69 SW8       30.33F WCI  22
KOKOMO *+      SUNNY     32  23  69 SW15      30.30F WCI  22
MARION +       SUNNY     31  23  72 SW12      30.31F WCI  21
MT COMFORT *+  MOSUNNY   32  16  51 SW10      30.34S WCI  24
SHELBYVILLE    MOSUNNY   32  22  66 SW9       30.35S WCI  24
ZIONSVILLE +   MOSUNNY   32  22  66 SW13      30.32F WCI  22

$$

INZ033-034-041-042-049-050-058-059-311700-
EAST CENTRAL INDIANA

CITY           SKY/WX    TMP DP  RH WIND       PRES   REMARKS
MUNCIE         SUNNY     31  21  66 SW10      30.32S WCI  22

$$

INZ060-061-067>069-081>083-085>088-311700-
SOUTHWEST INDIANA

CITY           SKY/WX    TMP DP  RH WIND       PRES   REMARKS
EVANSVILLE     CLOUDY    36  24  62 SW8       30.41S
HUNTINGBURG *+ PTSUNNY   34  25  69 S7        30.40S WCI  28
WASHINGTON +   PTSUNNY   32  22  65 S6        30.38S WCI  27

$$

INZ062-063-066-070>080-084-089>092-311700-
SOUTH CENTRAL AND SOUTHEAST INDIANA

CITY           SKY/WX    TMP DP  RH WIND       PRES   REMARKS
BLOOMINGTON    PTSUNNY   32  22  66 SW10      30.36R WCI  24
NORTH VERNON + MOSUNNY   32  21  64 SW6       30.38S WCI  26
SEYMOUR +      PTSUNNY   32  23  69 SW5       30.39S WCI  27

$$



USA.gov is the U.S. government's official web portal to all federal, state and local government web resources and services.